Regional Weather Roundup
Issued by NWS

Home | Current Version | Previous Version | Text Only | Print | Product List | Glossary On
Versions: 1 2 3 4 5 6 7 8 9 10 11 12 13 14 15 16 17 18 19 20 21 22 23 24 25 26 27 28 29 30 31 32 33 34 35 36 37 38 39 40 41 42 43 44 45 46 47 48 49 50
000
ASUS43 KDTX 201510
RWRMI
MICHIGAN HOURLY REGIONAL WEATHER ROUNDUP
NATIONAL WEATHER SERVICE DETROIT/PONTIAC MI
1000 AM EST MON NOV 20 2017

NOTE: "FAIR" INDICATES FEW OR NO CLOUDS BELOW 12,000 FEET WITH NO
SIGNIFICANT WEATHER AND/OR OBSTRUCTION TO VISIBILITY.

MIZ047>049-052>055-059>063-066>070-074>076-081>083-201600-
SOUTHEAST LOWER MICHIGAN

CITY           SKY/WX    TMP DP  RH WIND       PRES   REMARKS
ADRIAN         SUNNY     34  24  67 SW14      30.04F WCI  25
ALMA           CLOUDY    33  28  81 S10G18    29.93S WCI  25
ANN ARBOR      SUNNY     35  24  64 S13       30.01F WCI  26
BAD AXE        CLOUDY    35  29  80 SW12G20   29.92F WCI  26
CARO           PTSUNNY   35  29  76 S12       29.93F WCI  27
DETROIT CITY   SUNNY    N/A N/A N/A SW16G24   30.02F
DETROIT        MOSUNNY   36  23  59 SW17      30.04F WCI  26
FLINT          SUNNY     35  24  64 SW13      29.96F WCI  26
GROSSE ILE     SUNNY     37  24  60 SW9       30.03F WCI  30
HILLSDALE      SUNNY     36  23  60 S13G18    29.99F WCI  27
HOWELL         SUNNY     36  26  65 S9        29.97F WCI  29

CITY           SKY/WX    TMP DP  RH WIND       PRES   REMARKS
JACKSON        SUNNY     37  23  56 S12G20    29.98F WCI  29
LAMBERTVILLE   SUNNY     39  23  53 SW10      30.05F WCI  32
LANSING        CLOUDY    36  25  64 S14       29.96F WCI  27
LAPEER         FAIR      36  26  69 SW12      29.95F WCI  27
MASON          SUNNY     37  26  62 SW5       29.96F WCI  34
MONROE         SUNNY     38  24  57 SW9       30.04F WCI  31
MT. CLEMENS    PTSUNNY   36  25  64 SW14      29.98F WCI  27
PONTIAC        PTSUNNY   34  24  67 SW12G20   29.97F WCI  25
PORT HOPE        N/A     35  28  75 VRB7      29.91S WCI  29
PORT HURON     MOSUNNY   34  25  69 SW7       29.99F WCI  28
TRI CITIES     CLOUDY    35  29  78 SW14      29.93S WCI  26
MIDLAND        FAIR      35  29  80 S10       29.91S WCI  27
TROY           SUNNY     35  25  65 SW12      30.02F WCI  27
SAGINAW HB     CLOUDY    34  28  80 SW17      29.93S WCI  23
$$
MIZ043>046-050>051-056>058-064>065-071>073-077>080-201600-
SOUTHWEST LOWER MICHIGAN

CITY           SKY/WX    TMP DP  RH WIND       PRES   REMARKS
BATTLE CREEK   SUNNY     36  25  64 SW20      29.96F WCI  25
BENTON HARBOR  SUNNY     38  25  59 S13G22    29.95F WCI  30
BIG RAPIDS     CLOUDY    34  31  89 S7        29.86F WCI  27
COLDWATER      SUNNY     37  23  57 SW15      29.99F WCI  28
FREMONT        PTSUNNY   36  33  89 S7        29.88S WCI  31
HOLLAND        SUNNY     37  28  70 S13       29.92F WCI  29
GRAND RAPIDS   CLOUDY    36  27  69 S13       29.93S WCI  27
IONIA          FAIR      35  25  67 S13       29.93S WCI  26
KALAMAZOO      SUNNY     36  24  62 S15       29.97F WCI  27
LUDINGTON      PTSUNNY   41  33  73 SW12      29.83F
MARSHALL       SUNNY     36  23  60 S10G18    29.97F WCI  28
MOUNT PLEASANT CLOUDY    37  30  76 S7        29.89F WCI  31
MUSKEGON       CLOUDY    45  33  63 SW20G29   29.89S
SOUTH HAVEN    SUNNY     38  26  61 S12       29.94F WCI  31
$$
MIZ016>042-201600-
NORTHERN LOWER MICHIGAN

CITY           SKY/WX    TMP DP  RH WIND       PRES   REMARKS
ALPENA         CLOUDY    31  26  82 S5        29.87F WCI  26
BEAVER ISLAND  MOSUNNY   33  28  82 E3        29.80F
BELLAIRE       CLOUDY    35  30  84 S7        29.82F WCI  29
CADILLAC       CLOUDY    33  31  92 S9        29.81F WCI  25
CHARLEVOIX     CLOUDY    34  29  82 SE6       29.84S WCI  29
FRANKFORT      SUNNY     38  32  77 SE3       29.81F
GAYLORD        CLOUDY    30  25  81 S8        29.81S WCI  22
GRAYLING       CLOUDY    31  25  80 S6        29.84S WCI  25
HARBOR SPRINGS CLOUDY    32  26  78 E7        29.82S WCI  26
MANISTEE       SUNNY     37  31  78 S3        29.82F
OSCODA         MOSUNNY   31  25  77 SW7       29.89S WCI  25
PELLSTON       CLOUDY    28  24  85 CALM      29.83F
ROGERS CITY    CLOUDY    32  25  76 S5        29.86F WCI  27
TRAVERSE CITY  CLOUDY    35  28  75 CALM      29.81F
$$
MIZ007>008-015-201600-
EASTERN UPPER MICHIGAN

CITY           SKY/WX    TMP DP  RH WIND       PRES   REMARKS
KINROSS        SUNNY     32  22  66 SW3       29.82F
MACKINAC ISLAN CLOUDY    33  26  75 SE3       29.82F
NEWBERRY       CLOUDY    23  21  90 CALM      29.78F
S. S. MARIE    CLOUDY    29  21  72 SE5       29.82F WCI  24
MUNISING         N/A     26  18  71 S6        29.76F WCI  19
$$
MIZ004>006-011>014-085-201600-
CENTRAL UPPER MICHIGAN

CITY           SKY/WX    TMP DP  RH WIND       PRES   REMARKS
MANISTIQUE     CLOUDY    28  19  69 E3        29.78F
ESCANABA       PTSUNNY   29  25  85 W5        29.78F WCI  24
MENOMINEE      CLOUDY    32  25  75 SW7       29.77F WCI  26
SAWYER-GWINN   PTSUNNY   21  18  86 S6        29.73F WCI  14
$$
MIZ001>003-009>011-084-201600-
WESTERN UPPER MICHIGAN

CITY           SKY/WX    TMP DP  RH WIND       PRES   REMARKS
IRON MOUNTAIN  CLOUDY    23  17  78 SE5       29.72F WCI  17
HOUGHTON       CLOUDY    23  19  85 SE5       29.66F WCI  17
COPPER HARBOR    N/A     32  24  72 SW8       29.69F WCI  25
IRONWOOD       CLOUDY   N/A N/A N/A S5        29.63F
$$

ABBREVIATIONS USED IN REMARKS
   TC - TEMPERATURE IN CELSIUS
  WCI - WIND CHILL INDEX
   HX - HEAT INDEX
  VSB - VISIBILITY





USA.gov is the U.S. government's official web portal to all federal, state and local government web resources and services.